VOI146 MMMX-MMGL

Flight info

Callsign VOI146
Flight time N/A
Altitude 34000
Route OVAGO3A OVAGO UT123 IGSON IGSON1B
Aircraft A21N/M-SDE2E3FGHIJ1RWXY/LB1

Departure

Time 2026-05-06 01:19
Airport Mexico City Benito Juárez International Airport (MMMX)

Arrival

Time N/A
Airport Guadalajara International Airport (MMGL)
Time Latitude Longitude Altitude Speed Heading
2026-05-06 00:52 19.43316 -99.08471 7305 ft 0 kts 328°
2026-05-06 01:08 19.43304 -99.08463 7305 ft 4 kts 328°
2026-05-06 01:08 19.43281 -99.08448 7305 ft 4 kts 328°
2026-05-06 01:08 19.43262 -99.08436 7305 ft 4 kts 313°
2026-05-06 01:08 19.43252 -99.08413 7305 ft 4 kts 262°
2026-05-06 01:09 19.43257 -99.08395 7305 ft 0 kts 239°
2026-05-06 01:13 19.43257 -99.08396 7305 ft 1 kts 239°
2026-05-06 01:13 19.43246 -99.08414 7304 ft 5 kts 238°
2026-05-06 01:14 19.43186 -99.08521 7304 ft 11 kts 239°
2026-05-06 01:14 19.43142 -99.08600 7304 ft 14 kts 239°
2026-05-06 01:14 19.43090 -99.08692 7304 ft 16 kts 239°
2026-05-06 01:15 19.43038 -99.08785 7303 ft 14 kts 238°
2026-05-06 01:15 19.42993 -99.08865 7304 ft 11 kts 239°
2026-05-06 01:15 19.42957 -99.08929 7304 ft 9 kts 239°
2026-05-06 01:15 19.42927 -99.08981 7304 ft 7 kts 238°
2026-05-06 01:16 19.42895 -99.09024 7304 ft 9 kts 221°
2026-05-06 01:16 19.42838 -99.09057 7304 ft 10 kts 206°
2026-05-06 01:16 19.42775 -99.09090 7304 ft 10 kts 203°
2026-05-06 01:16 19.42723 -99.09084 7305 ft 1 kts 117°
2026-05-06 01:17 19.42725 -99.09077 7305 ft 1 kts 65°
2026-05-06 01:17 19.42735 -99.09069 7305 ft 3 kts 35°
2026-05-06 01:17 19.42756 -99.09047 7305 ft 5 kts 54°
2026-05-06 01:17 19.42826 -99.08929 7305 ft 46 kts 59°
2026-05-06 01:18 19.43092 -99.08452 7303 ft 104 kts 59°
2026-05-06 01:18 19.43555 -99.07629 7307 ft 159 kts 59°
2026-05-06 01:18 19.44204 -99.06483 7319 ft 198 kts 61°
2026-05-06 01:18 19.44854 -99.05202 7718 ft 198 kts 76°
2026-05-06 01:19 19.44816 -99.03797 8156 ft 199 kts 112°
2026-05-06 01:19 19.44273 -99.02422 8640 ft 207 kts 111°
2026-05-06 01:19 19.43853 -99.00959 9063 ft 206 kts 101°
2026-05-06 01:19 19.43622 -98.99442 9258 ft 213 kts 95°
2026-05-06 01:20 19.43526 -98.97848 9343 ft 224 kts 91°
2026-05-06 01:20 19.43515 -98.96148 9395 ft 236 kts 89°
2026-05-06 01:20 19.43555 -98.94350 9448 ft 250 kts 88°
2026-05-06 01:20 19.43622 -98.92455 9490 ft 264 kts 89°
2026-05-06 01:21 19.43338 -98.90532 9590 ft 274 kts 114°
2026-05-06 01:21 19.42214 -98.88880 9830 ft 281 kts 141°
2026-05-06 01:21 19.40478 -98.87941 10320 ft 282 kts 167°
2026-05-06 01:21 19.38513 -98.87904 10727 ft 287 kts 192°
2026-05-06 01:22 19.36724 -98.88776 11165 ft 290 kts 218°
2026-05-06 01:22 19.35423 -98.90421 11630 ft 294 kts 242°
2026-05-06 01:22 19.34683 -98.92436 12153 ft 297 kts 252°
2026-05-06 01:22 19.34046 -98.94511 12609 ft 290 kts 240°